Wind_Speed
18 19 17 17 19 16 13 13 11 10 13 10 9 9 9 9 8 8 10 14 18 19 21 20 20 22 22 20 20 21 20 20 21 22 21 22 23 21 21 20 20 18 19
21 24 22 21 20 19 16 14 15 14 13 10 12 12 12 11 10 8 8 9 14 17 21 21 20 19 19 21 21 21 23 24 24 22 20 19 22 23 23 22 22 19 17
27 28 26 23 22 20 18 17 16 16 16 17 13 12 13 13 13 11 10 10 12 13 13 16 19 19 19 19 19 19 21 21 21 21 21 21 21 22 22 23 21 19 18
29 28 27 25 25 23 22 21 19 19 20 19 20 19 16 16 14 12 12 12 13 13 14 14 14 15 16 17 17 17 18 18 19 20 20 19 19 20 21 20 18 18 17
38 27 23 24 27 26 24 22 21 20 20 20 20 19 18 19 17 15 15 15 15 15 16 16 17 17 17 17 17 18 20 20 20 19 18 17 18 19 21 20 20 18 16
19 27 33 19 22 25 25 24 22 21 21 21 21 20 20 21 20 18 17 17 18 18 18 18 18 19 20 20 21 21 22 22 21 20 20 20 19 19 21 21 21 20 17
14 16 15 18 18 25 31 25 23 21 21 22 22 21 21 21 20 20 20 20 20 20 19 19 20 20 21 22 22 22 22 22 21 21 21 21 21 22 23 22 23 23 22
19 20 19 15 12 15 20 25 25 23 25 24 24 27 27 27 23 21 20 21 21 20 21 21 21 22 23 24 24 24 24 24 24 26 25 23 22 23 24 25 25 25 24
19 20 17 15 12 14 12 17 24 25 30 29 33 29 27 34 29 27 26 27 26 25 25 24 24 24 24 25 27 27 27 26 29 30 29 29 28 27 28 28 28 30 28
21 22 21 18 16 17 16 16 17 19 23 21 20 29 34 33 29 28 29 31 32 31 29 29 29 29 29 29 29 30 30 30 31 32 32 33 33 32 31 31 32 33 33
15 16 18 22 24 22 20 20 22 25 27 28 22 18 22 32 41 38 30 37 37 33 32 31 30 30 31 31 31 31 32 32 32 33 32 32 32 34 34 34 34 36 37
14 15 15 13 15 17 20 18 16 15 13 12 13 18 23 27 23 24 28 21 28 35 35 32 31 32 31 32 32 33 34 35 35 31 29 30 33 34 33 34 35 35 37
14 15 16 17 17 18 18 18 18 18 19 18 19 19 20 21 20 23 26 19 23 21 25 29 39 44 34 34 35 36 36 37 38 39 40 39 37 35 37 37 37 37 37
20 21 21 22 23 24 25 25 25 26 26 26 26 26 28 28 28 27 26 26 28 28 26 27 29 32 38 44 37 34 36 37 38 40 41 40 38 35 33 35 35 37 40
25 26 26 26 27 28 29 29 30 31 32 32 31 30 31 32 31 31 32 33 34 35 36 37 37 37 37 38 38 38 38 38 37 36 35 35 36 36 35 36 39 39 39
20 22 24 25 26 26 28 28 28 27 27 27 29 31 31 29 29 29 29 29 30 31 32 34 36 38 40 41 41 40 41 43 43 43 41 40 39 39 38 35 34 35 38
23 22 22 22 22 23 24 25 27 27 25 23 24 27 28 29 28 27 28 28 28 29 31 31 32 33 35 37 38 39 40 41 42 42 42 43 43 42 42 42 40 39 37
23 23 24 23 23 23 23 23 24 24 25 26 27 28 29 31 32 33 34 34 34 34 35 36 36 36 37 37 37 38 39 40 41 42 42 42 43 42 42 43 44 43 42
20 21 22 22 22 22 23 24 25 26 27 28 29 31 32 33 35 36 39 41 41 41 41 42 43 43 44 45 45 44 44 43 41 41 41 42 43 45 44 44 44 44 45
22 22 22 22 23 23 24 25 27 29 30 32 34 36 38 39 39 39 41 43 45 47 49 50 50 50 50 51 52 52 52 51 50 49 48 47 46 45 44 45 45 47 46
25 25 24 24 25 26 27 29 30 31 33 34 36 37 39 41 42 44 46 46 47 48 49 50 52 53 54 55 57 58 58 57 57 57 56 56 55 53 52 50 49 46 46
22 24 25 26 26 27 28 30 31 33 35 36 38 40 42 44 47 48 50 51 52 53 55 58 59 60 60 59 59 59 61 62 62 62 62 62 62 60 59 56 53 51 51
22 24 25 26 26 27 28 30 32 34 36 38 40 43 45 47 49 51 54 56 58 60 61 61 63 66 68 69 68 65 64 64 64 65 67 67 67 66 66 65 63 61 57
26 25 26 27 26 26 28 30 32 33 35 38 41 43 47 50 52 54 56 58 59 61 63 66 68 68 68 69 71 72 71 67 65 65 66 68 68 68 69 69 68 66 63
31 30 28 26 25 27 28 30 32 33 35 38 41 44 47 49 51 52 52 53 54 56 57 58 60 61 63 64 64 65 64 64 64 63 62 63 65 65 66 68 69 69 67
25 27 26 25 25 27 29 31 31 32 34 37 39 41 44 46 47 48 48 47 46 47 48 49 50 50 52 54 55 56 56 55 55 55 57 58 59 60 60 61 61 62 64
Wind_Direction
220 214 213 215 210 213 211 211 204 202 197 196 206 209 220 226 226 227 234 238 237 233 231 237 244 247 255 259 258 260 261 269 277 288 287 287 291 296 302 310 312 315 324
225 217 215 219 217 218 216 211 215 211 209 224 229 224 232 229 227 229 240 247 246 240 241 241 246 254 259 261 264 267 269 274 278 278 282 286 288 291 296 300 301 306 311
227 221 216 221 226 222 222 223 225 227 222 223 216 218 220 224 219 217 224 235 242 247 247 246 249 257 265 266 267 268 272 277 277 278 282 283 284 286 288 290 294 302 305
226 223 219 222 225 229 228 226 228 229 231 229 222 221 224 217 215 221 227 229 236 240 244 243 247 253 256 262 266 269 274 277 280 281 280 284 289 287 286 286 289 295 298
222 217 214 224 222 222 227 225 228 229 233 237 239 232 230 224 225 224 228 231 233 235 239 244 247 251 256 259 263 267 269 270 271 274 275 276 281 286 289 291 294 295 293
240 237 232 229 226 225 227 230 228 232 235 239 236 237 237 239 239 241 241 242 245 242 243 247 249 251 255 257 259 260 265 269 273 273 275 276 277 278 280 286 291 294 295
168 169 191 225 252 241 234 231 232 233 239 245 245 245 243 242 242 241 240 242 247 252 252 254 255 255 256 259 260 263 269 274 278 278 278 279 278 279 282 285 289 293 297
227 223 227 229 220 239 230 225 233 240 240 244 256 256 252 249 243 242 245 247 246 249 255 257 256 258 260 261 264 266 269 271 274 275 277 278 278 279 282 284 287 288 289
215 214 217 225 228 213 215 220 231 245 261 259 252 258 258 245 247 248 249 250 250 250 252 256 257 258 260 263 266 268 269 272 273 276 278 279 279 279 281 282 285 286 285
212 223 226 228 237 227 228 228 230 232 245 260 265 253 251 253 248 253 260 254 255 254 255 256 258 260 260 261 264 267 269 271 272 276 278 280 282 283 283 284 284 284 285
212 216 225 228 232 235 242 253 247 250 253 253 251 265 277 251 250 254 277 267 262 259 261 262 263 264 267 266 267 269 274 273 274 276 279 282 282 282 281 281 283 285 285
202 206 211 216 217 225 230 230 236 238 245 252 256 255 257 264 250 241 250 259 257 265 258 264 269 273 275 274 273 274 278 277 277 274 278 283 282 282 282 280 279 279 280
229 230 232 233 231 232 238 244 250 258 265 266 265 262 256 258 266 261 269 263 262 264 257 258 260 263 272 280 278 279 278 277 275 275 279 283 282 280 278 280 281 281 279
251 251 251 250 251 251 255 257 260 263 266 268 270 272 273 274 274 272 270 271 272 276 274 268 266 264 258 269 279 280 278 278 278 280 281 281 278 276 277 279 279 280 278
259 260 261 263 263 263 262 262 262 263 266 271 273 272 271 272 271 269 269 268 267 267 269 272 273 273 273 272 273 276 277 279 279 280 283 284 282 279 277 280 283 278 278
263 261 259 259 261 264 266 268 270 271 269 267 267 270 273 271 270 271 271 270 269 270 269 269 270 272 274 274 274 274 275 276 277 278 278 278 279 282 283 281 284 283 279
262 262 261 260 260 261 262 266 272 271 271 268 264 262 263 267 269 268 268 269 271 273 275 275 274 274 275 276 276 275 273 273 275 276 276 277 276 276 277 279 280 280 281
259 260 262 264 264 263 265 266 266 270 276 279 276 273 268 267 268 269 271 272 274 276 277 277 278 278 277 276 276 277 276 275 275 276 277 276 276 277 276 275 277 278 278
259 260 262 264 267 269 269 269 270 271 270 271 274 276 276 276 276 276 277 278 279 279 279 280 280 280 279 279 279 278 278 278 278 278 279 279 279 278 276 276 276 276 277
264 265 265 265 266 268 270 272 274 276 276 276 276 275 276 277 277 277 278 278 278 278 279 279 279 279 278 278 277 277 276 277 276 277 278 279 279 279 280 279 277 276 276
262 264 266 267 270 273 276 278 279 280 281 282 282 281 280 279 277 277 277 277 278 278 277 277 277 277 276 276 276 277 277 276 276 277 277 277 277 276 277 277 277 278 279
258 259 262 267 272 275 278 280 282 284 285 284 284 284 284 283 283 283 282 281 280 280 281 281 281 280 278 275 273 273 273 274 274 275 275 275 276 276 276 276 276 277 277
268 267 267 268 269 272 275 277 280 282 284 286 286 286 287 286 286 286 284 283 282 281 279 277 277 277 277 278 278 276 274 271 270 270 272 272 273 275 275 275 275 275 276
272 279 273 270 273 277 280 282 283 285 286 288 290 290 290 289 288 287 285 283 281 279 278 276 275 274 274 273 272 273 275 277 277 275 274 273 272 272 273 274 275 275 275
273 268 269 270 273 276 279 282 285 289 292 293 295 296 297 297 295 294 292 288 284 280 276 274 274 274 274 275 275 275 275 275 277 277 277 277 277 277 276 276 276 275 275
256 262 265 270 275 281 285 286 290 295 299 302 306 307 306 304 302 298 295 291 287 282 279 277 276 275 274 274 274 275 275 275 275 275 276 277 278 279 279 279 279 279 278
Height
3221 3224 3227 3229 3231 3234 3236 3238 3241 3242 3243 3245 3246 3248 3249 3250 3251 3253 3254 3255 3257 3258 3260 3262 3264 3266 3267 3267 3268 3268 3268 3268 3268 3267 3266 3265 3264 3263 3261 3260 3258 3256 3254
3217 3220 3223 3225 3228 3231 3234 3236 3238 3240 3242 3243 3244 3246 3247 3248 3249 3250 3252 3253 3254 3256 3257 3259 3261 3262 3263 3264 3264 3264 3264 3264 3264 3263 3262 3261 3260 3259 3258 3257 3256 3254 3252
3212 3215 3218 3221 3224 3227 3230 3234 3236 3237 3238 3240 3242 3244 3245 3246 3247 3248 3249 3251 3252 3253 3254 3256 3257 3259 3260 3260 3260 3260 3260 3259 3259 3259 3258 3258 3256 3255 3254 3253 3252 3250 3250
3207 3211 3213 3216 3220 3223 3226 3228 3232 3234 3236 3238 3240 3240 3242 3243 3244 3246 3247 3248 3250 3251 3252 3253 3254 3255 3256 3256 3256 3256 3256 3256 3255 3255 3255 3255 3253 3251 3250 3250 3249 3247 3246
3199 3206 3209 3211 3214 3218 3222 3224 3227 3230 3233 3235 3237 3239 3240 3240 3241 3242 3244 3245 3247 3248 3249 3250 3251 3251 3252 3252 3252 3252 3252 3252 3251 3251 3251 3250 3249 3248 3247 3246 3245 3245 3244
3192 3198 3204 3208 3209 3214 3218 3221 3223 3226 3228 3231 3233 3234 3235 3236 3238 3240 3241 3242 3244 3245 3245 3246 3247 3248 3248 3248 3248 3248 3248 3248 3247 3247 3247 3246 3245 3244 3243 3242 3241 3240 3240
3194 3198 3200 3205 3205 3208 3212 3216 3218 3222 3224 3227 3229 3230 3231 3232 3234 3235 3236 3237 3239 3241 3242 3242 3244 3244 3244 3244 3244 3244 3245 3245 3244 3244 3244 3243 3242 3241 3240 3239 3238 3237 3236
3192 3194 3197 3199 3202 3203 3204 3209 3214 3217 3220 3221 3223 3226 3227 3227 3228 3230 3231 3233 3234 3235 3236 3237 3238 3239 3239 3240 3240 3240 3240 3240 3239 3238 3238 3238 3237 3236 3235 3234 3234 3232 3232
3188 3191 3194 3196 3199 3200 3203 3206 3210 3212 3215 3214 3217 3218 3219 3221 3223 3224 3226 3227 3228 3229 3230 3231 3232 3233 3233 3233 3233 3234 3234 3235 3233 3233 3233 3232 3232 3232 3229 3229 3228 3225 3225
3186 3189 3191 3194 3196 3198 3200 3203 3206 3208 3210 3210 3210 3211 3212 3214 3215 3218 3219 3220 3221 3222 3224 3224 3225 3227 3227 3227 3227 3227 3228 3229 3228 3227 3227 3227 3226 3225 3224 3222 3221 3219 3218
3184 3187 3189 3191 3193 3195 3197 3200 3201 3203 3204 3204 3205 3205 3205 3204 3206 3210 3211 3211 3213 3215 3217 3218 3219 3219 3220 3220 3220 3220 3220 3221 3221 3220 3220 3221 3220 3219 3217 3215 3214 3212 3210
3181 3183 3185 3186 3188 3190 3192 3195 3196 3197 3199 3198 3200 3201 3201 3201 3201 3205 3207 3205 3205 3207 3209 3211 3212 3212 3213 3213 3213 3212 3211 3211 3211 3211 3211 3211 3211 3211 3210 3209 3207 3205 3203
3178 3180 3182 3184 3185 3186 3187 3190 3191 3192 3193 3193 3195 3196 3197 3196 3197 3198 3199 3199 3199 3200 3201 3203 3204 3204 3204 3204 3204 3204 3203 3203 3202 3201 3201 3202 3201 3200 3200 3199 3198 3195 3194
3172 3174 3177 3179 3180 3181 3183 3184 3185 3187 3188 3188 3189 3188 3187 3188 3188 3189 3191 3192 3193 3195 3195 3195 3195 3195 3195 3196 3195 3194 3193 3193 3193 3192 3191 3191 3191 3190 3190 3189 3188 3186 3184
3166 3167 3169 3170 3172 3175 3176 3178 3179 3180 3180 3180 3180 3180 3180 3179 3180 3181 3182 3183 3184 3185 3187 3186 3186 3186 3186 3186 3186 3185 3184 3184 3183 3182 3182 3181 3180 3180 3180 3178 3177 3176 3174
3160 3161 3162 3163 3165 3166 3167 3168 3168 3169 3170 3171 3171 3171 3168 3170 3171 3171 3172 3173 3174 3175 3175 3175 3175 3174 3174 3174 3174 3175 3173 3172 3171 3171 3171 3170 3169 3168 3168 3168 3166 3164 3162
3153 3154 3155 3157 3158 3159 3160 3159 3160 3161 3161 3162 3163 3163 3162 3163 3163 3164 3164 3165 3165 3165 3165 3165 3165 3165 3163 3163 3162 3162 3162 3161 3160 3158 3159 3158 3157 3156 3156 3156 3155 3153 3152
3146 3147 3148 3150 3151 3152 3152 3153 3154 3154 3154 3154 3154 3154 3154 3155 3155 3155 3155 3156 3156 3154 3154 3155 3155 3155 3154 3153 3152 3151 3150 3150 3148 3147 3147 3146 3145 3144 3144 3142 3142 3141 3140
3141 3141 3142 3143 3144 3145 3146 3148 3147 3147 3147 3147 3147 3146 3146 3146 3145 3145 3145 3144 3143 3144 3143 3142 3142 3142 3141 3140 3139 3139 3139 3138 3137 3135 3134 3134 3133 3131 3130 3129 3128 3128 3126
3135 3136 3136 3137 3138 3139 3140 3140 3140 3140 3139 3139 3138 3138 3137 3137 3136 3135 3134 3133 3131 3130 3129 3128 3128 3127 3126 3125 3125 3124 3124 3124 3123 3123 3121 3121 3120 3119 3118 3117 3115 3114 3113
3129 3129 3130 3130 3131 3131 3131 3130 3130 3130 3129 3129 3128 3127 3126 3125 3124 3123 3121 3120 3118 3117 3115 3113 3112 3112 3111 3110 3108 3107 3107 3107 3106 3105 3105 3105 3104 3104 3103 3102 3102 3100 3099
3122 3123 3123 3123 3123 3123 3123 3123 3122 3121 3121 3119 3118 3116 3115 3112 3110 3108 3106 3105 3102 3100 3098 3094 3093 3092 3091 3092 3092 3091 3090 3089 3088 3087 3086 3086 3085 3085 3085 3086 3087 3085 3085
3116 3116 3117 3117 3117 3117 3117 3116 3115 3114 3112 3110 3108 3106 3104 3101 3098 3095 3092 3089 3086 3083 3080 3079 3076 3073 3071 3069 3068 3067 3068 3070 3069 3068 3066 3066 3066 3066 3066 3066 3067 3067 3067
3109 3110 3110 3109 3109 3109 3108 3108 3107 3105 3103 3101 3098 3096 3093 3089 3085 3082 3078 3074 3070 3067 3063 3059 3056 3054 3052 3051 3049 3047 3045 3046 3045 3045 3045 3045 3047 3047 3046 3046 3047 3047 3047
3100 3101 3102 3102 3102 3102 3101 3100 3098 3095 3093 3090 3087 3082 3078 3074 3069 3064 3060 3055 3051 3047 3044 3041 3038 3036 3033 3031 3030 3029 3029 3027 3026 3025 3024 3024 3024 3025 3026 3025 3026 3026 3026
3093 3094 3094 3094 3093 3092 3091 3089 3088 3085 3083 3079 3074 3070 3065 3059 3054 3048 3043 3038 3034 3029 3025 3023 3021 3018 3017 3015 3013 3011 3011 3010 3009 3008 3006 3006 3006 3006 3005 3004 3004 3004 3005